Regional Weather Roundup
Issued by NWS

Home | Current Version | Previous Version | Text Only | Print | Product List | Glossary Off
Versions: 1 2 3 4 5 6 7 8 9 10 11 12 13 14 15 16 17 18 19 20 21 22 23 24 25 26 27 28

000
ASUS45 KSLC 210610
RWRUT

UTAH REGIONAL WEATHER ROUNDUP
NATIONAL WEATHER SERVICE SALT LAKE CITY UT
1100 PM MST SAT JAN 20 2018

UTZ001>011-023>025-210700-

NORTHERN UTAH

CITY           SKY/WX    TMP DP  RH WIND       PRES   REMARKS
BRIGHAM CITY   CLOUDY    30  21  69 N3        30.00R
HILL AFB       PTCLDY    26  20  75 N10       29.96R WCI  17
LOGAN          MOCLDY    26  18  71 CALM      29.99R
OGDEN          PTCLDY    28  21  75 NW13      29.96R WCI  17
SALT LAKE CITY PTCLDY    31  24  75 N14       29.97R WCI  21
TOOELE VALLEY  CLOUDY    28  23  80 NW10      29.99S WCI  19
WENDOVER       PTCLDY    29  17  61 NW15      30.05R WCI  18
HEBER CITY       N/A     21  16  79 CALM      29.87S
WEST JORDAN    PTCLDY    26  23  86 NW15      29.97R WCI  14

$$

UTZ011>015-024>027-210700-

CENTRAL/NORTHEAST UTAH

CITY           SKY/WX    TMP DP  RH WIND       PRES   REMARKS
PROVO AIRPORT  CLOUDY    29  22  75 NW23G29   29.95R WCI  15
MOAB/CANYONLAN MOCLDY    28  26  92 W10       29.74S WCI  19
DELTA          MOCLDY    21  18  86 CALM      29.97R
PRICE          PTCLDY    26  16  65 NW14G25   29.76R WCI  14
ROOSEVELT      CLOUDY    27  21  80 NE3       29.80R
VERNAL         CLOUDY    30  20  66 MISG      29.77R

$$

UTZ013>016-019>022-027-210700-

SOUTHERN UTAH

CITY           SKY/WX    TMP DP  RH WIND       PRES   REMARKS
BRYCE CANYON   PTCLDY    16  12  84 NW17G26   29.81R WCI   0
CEDAR CITY     MOCLDY    13  13 100 CALM      29.94R
MILFORD        CLOUDY    19  17  92 N6        29.97R WCI  11
ST GEORGE      PTCLDY    36  27  69 SE6       29.99R WCI  31
HANKSVILLE     PTCLDY    34  14  44 NW12      29.83R WCI  25
BLANDING         N/A     31  29  92 S7        29.84F WCI  25

$$

REGIONAL REPORTS     COLORADO/ARIZONA

CITY           SKY/WX    TMP DP  RH WIND       PRES   REMARKS
CRAIG, CO      LGT SNOW  27  23  85 SW13      29.76R FOG     WCI  16
GRAND JUNCTION MIX PCPN  34  34 100 E5        29.72R WCI  30
RIFLE, CO      LGT RAIN  34  34 100 CALM      29.73S
MONTROSE, CO   CLOUDY    40  21  46 VRB7      29.76R
CORTEZ, CO     MOCLDY    29  28  96 CALM      29.79F
COLORADO CITY  MOCLDY    30  27  86 NW13G20   29.94R WCI  20
PAGE, AZ       CLOUDY    38  21  50 W8G17     29.82R WCI  32
GRAND CANYON   CLOUDY    22  20  92 W8        29.85R WCI  12
KINGMAN, AZ    CLEAR    N/A N/A N/A CALM      30.02R
FLAGSTAFF, AZ  LGT SNOW  24  21  88 W13G21    29.83S FOG     WCI  12

$$

REGIONAL REPORTS    NEVADA/IDAHO/WYOMING

CITY           SKY/WX    TMP DP  RH WIND       PRES   REMARKS
LAS VEGAS, NV  PTCLDY    46  16  30 NW13G25   30.07R
ELY, NY        CLOUDY    16  11  80 N5        30.02R WCI   9
ELKO, NV       CLOUDY    29  19  66 W10       30.09R WCI  20
POCATELLO, ID  PTCLDY    28  19  69 NW8       30.03R WCI  20
BURLEY, ID     CLEAR     28  23  81 W12G20    30.03S WCI  18
FORT BRIDGER,  LGT SNOW  20  20 100 W12       29.87R WCI   8
EVANSTON, WY   CLOUDY    17  15  92 N17       29.85S FOG     WCI   1
ROCK SPRINGS,  CLOUDY    20  14  77 NE13      29.84R WCI   7

$$




USA.gov is the U.S. government's official web portal to all federal, state and local government web resources and services.